This is the latest recevied weather packets stored in our database for station/object PA3BWK. If no packets are shown the sender has not sent any weather packets the latest 10 day(s).
| Time | Temp. | Humidity | Pressure | Rain* | Wind** | Luminosity | Snow |
|---|---|---|---|---|---|---|---|
| 1777618986 | 11.67° C | 57% | 1026.4 hPa | 0 mm | - | 86 W/m² | - |
| 1777618925 | 11.67° C | 58% | 1026.4 hPa | 0 mm | - | 44 W/m² | - |
| 1777618865 | 11.67° C | 58% | 1026.4 hPa | 0 mm | - | 65 W/m² | - |
| 1777618812 | 11.67° C | 58% | 1026.4 hPa | 0 mm | - | 65 W/m² | - |
| 1777618744 | 11.11° C | 59% | 1026.4 hPa | 0 mm | - | 60 W/m² | - |
| 1777618684 | 11.11° C | 59% | 1026.4 hPa | 0 mm | - | 34 W/m² | - |
| 1777618654 | 11.11° C | 59% | 1026.3 hPa | 0 mm | - | 28 W/m² | - |
| 1777618564 | 11.11° C | 59% | 1026.4 hPa | 0 mm | - | 28 W/m² | - |
| 1777618506 | 11.11° C | 59% | 1026.4 hPa | 0 mm | - | 28 W/m² | - |
| 1777618444 | 11.11° C | 60% | 1026.6 hPa | 0 mm | - | 27 W/m² | - |
| 1777618385 | 11.11° C | 60% | 1026.5 hPa | 0 mm | - | 28 W/m² | - |
| 1777618324 | 11.11° C | 60% | 1026.5 hPa | 0 mm | - | 34 W/m² | - |
| 1777618264 | 10.56° C | 60% | 1026.5 hPa | 0 mm | - | 35 W/m² | - |
| 1777618207 | 10.56° C | 60% | 1026.5 hPa | 0 mm | - | 30 W/m² | - |
| 1777618143 | 10.56° C | 60% | 1026.5 hPa | 0 mm | - | 44 W/m² | - |
| 1777618084 | 10.56° C | 60% | 1026.5 hPa | 0 mm | - | 44 W/m² | - |
| 1777618025 | 10.56° C | 61% | 1026.5 hPa | 0 mm | - | 53 W/m² | - |
| 1777617964 | 10.56° C | 61% | 1026.5 hPa | 0 mm | - | 32 W/m² | - |
| 1777617906 | 10.56° C | 62% | 1026.5 hPa | 0 mm | - | 34 W/m² | - |
| 1777617844 | 10.56° C | 62% | 1026.5 hPa | 0 mm | - | 41 W/m² | - |
| 1777617783 | 10.56° C | 62% | 1026.6 hPa | 0 mm | - | 44 W/m² | - |
| 1777617724 | 10.56° C | 62% | 1026.5 hPa | 0 mm | - | 32 W/m² | - |
| 1777617666 | 10.56° C | 62% | 1026.6 hPa | 0 mm | - | 27 W/m² | - |
| 1777617608 | 10° C | 62% | 1026.6 hPa | 0 mm | - | 25 W/m² | - |
| 1777617544 | 10° C | 63% | 1026.5 hPa | 0 mm | - | 25 W/m² | - |
* Rain latest hour (hover to see other rain measurements)
** Current wind speed in m/s (hover to see current wind gust speed)